[[{"header":{"parameterUnit":"m.s-1","parameterCategory":1,"la1":30.2991,"la2":30.254,"lo1":-89.0895,"lo2":-89.0444,"dy":0.0017,"dx":0.0017,"nx":28,"ny":28,"refTime":"2024-07-29T21:00:00:Z","depth":0,"parameterNumber":2,"parameterNumberName":"U-component_of_WINDS"},"data":[0,0,0,0,0,0,0,0,0,0,0,0,0,0,0,0,0,0,0,0,0,0,0,0,0,0,0,0,0,0,0,0,0,0,0,0,0,0,0,0,0,0,0,0,0,0,0,0,0,0,0,0,0,0,0,0,0,0,2.2775,2.2776,0,2.286,2.2861,2.2862,2.2883,2.2882,2.2882,2.2881,2.2969,2.2972,2.2975,0,0,0,0,0,0,0,0,0,0,0,0,0,2.2634,2.2637,2.2775,2.2776,2.2777,2.286,2.2861,2.2862,2.2883,2.2882,2.2882,2.2881,2.2968,2.2972,2.2975,0,0,0,0,0,0,0,0,0,0,0,0,0,2.2705,2.2638,2.2775,2.2798,2.2801,2.286,2.2861,2.2862,2.2883,2.2882,2.2881,2.2881,2.2967,2.2971,2.2975,2.3018,0,0,2.2989,2.299,0,0,0,0,0,0,0,0,2.2701,2.271,2.2793,2.2796,2.28,2.286,2.2844,2.2915,2.2883,2.2852,2.2881,2.288,2.2934,2.2941,2.2958,2.3022,2.3026,2.2989,2.2992,2.2993,2.2995,0,0,0,0,0,0,0,2.2696,2.2707,2.2809,2.2795,2.2798,2.2805,2.2814,2.2857,2.2896,2.2854,2.2856,2.2866,2.2935,2.2954,2.296,2.3028,2.2989,2.2993,2.2995,2.2997,2.3134,2.3135,0,0,0,0,0,0,2.2687,2.2702,2.2806,2.2811,2.2747,2.2808,2.2818,2.2841,2.2896,2.2903,2.2866,2.2867,2.2947,2.2955,2.2964,2.3019,2.2993,2.2997,2.3,2.3133,2.3134,2.3135,0,0,0,0,0,0,2.2684,2.2696,2.2803,2.2757,2.2771,2.2811,2.2837,2.2844,2.2863,2.2905,2.2912,2.2879,2.2947,2.2958,2.3005,2.3023,2.2999,2.3003,2.3132,2.3133,2.3135,2.313,0,0,0,0,0,0,2.268,2.2695,2.2711,2.2758,2.2774,2.2842,2.2838,2.2846,2.287,2.2871,2.2918,2.2925,2.2947,2.2999,2.3009,2.3028,2.3007,2.313,2.3132,2.3134,2.3128,2.3131,2.3133,0,0,0,0,0,2.2675,2.2706,2.2711,2.2724,2.2794,2.2843,2.2852,2.2876,2.2871,2.2888,2.2916,2.2924,2.3019,2.3003,2.3016,2.3036,2.3129,2.3132,2.3134,2.3127,2.313,2.3133,0,0,0,0,0,0,2.266,2.2712,2.2719,2.2766,2.28,2.2846,2.2868,2.2878,2.2914,2.2914,2.2943,2.2953,2.2999,2.3022,2.3004,2.3081,2.3074,2.3079,2.3065,2.3068,2.307,2.3064,2.301,0,0,0,0,0,2.2662,2.2696,2.274,2.2778,2.2794,2.2828,2.285,2.2866,2.2902,2.2917,2.2948,2.2983,2.3021,2.3046,2.3083,2.3132,2.3144,2.3152,2.3154,2.3156,2.316,2.319,2.3195,2.3143,2.3143,2.3143,0,0,2.2667,2.27,2.272,2.2776,2.2804,2.284,2.284,2.2878,2.2905,2.2923,2.297,2.2994,2.3035,2.3084,2.3107,2.3105,2.3177,2.3159,2.316,2.3163,2.3193,2.3198,2.3202,2.3145,2.3145,2.3144,0,0,2.2695,2.2722,2.2758,2.2786,2.2828,2.2851,2.2859,2.2905,2.2921,2.2969,2.2984,2.3017,2.3081,2.3111,2.3134,2.3175,2.3185,2.3186,2.3199,2.3227,2.3231,2.3235,2.3252,2.3257,2.319,2.319,2.319,0,2.2696,2.275,2.2774,2.2812,2.2837,2.2854,2.2891,2.2917,2.297,2.2987,2.2983,2.3066,2.3095,2.3152,2.3162,2.318,2.3192,2.3182,2.3229,2.3233,2.3237,2.3253,2.3259,2.319,2.319,2.319,2.319,0,2.275,2.2788,2.2811,2.2862,2.2889,2.2926,2.2957,2.2982,2.2996,2.3019,2.3069,2.3104,2.315,2.3164,2.3178,2.3224,2.3222,2.3223,2.3216,2.3241,2.3257,2.3263,2.3191,2.3191,2.3191,2.3191,0,0,2.2771,2.2835,2.2844,2.2868,2.2917,2.2947,2.2985,2.3029,2.3051,2.3087,2.3121,2.3176,2.3178,2.3205,2.3222,2.3247,2.3279,2.3246,2.3247,2.3252,2.3335,2.3335,2.3341,2.3286,2.3287,2.3288,2.3332,0,2.2806,2.2875,2.2899,2.2956,2.2992,2.301,2.3043,2.3077,2.3101,2.3135,2.3161,2.3201,2.3199,2.3216,2.3241,2.327,2.3297,2.3267,2.3319,2.3321,2.331,2.3349,2.3349,2.3389,2.3338,2.3339,2.334,0,2.2856,2.2894,2.2954,2.3,2.3016,2.3046,2.309,2.3122,2.3162,2.3177,2.3208,2.3224,2.3266,2.3256,2.3316,2.3295,2.3318,2.3335,2.3338,2.3345,2.3333,2.3359,2.3402,2.3409,2.335,2.3349,2.3348,0,2.2868,2.2933,2.2978,2.2998,2.3052,2.3073,2.3097,2.3136,2.3162,2.32,2.3218,2.326,2.3284,2.3318,2.3345,2.3335,2.3403,2.3395,2.3419,2.3418,2.3433,2.3432,2.3482,2.3445,2.3445,2.3445,2.3445,0,2.2906,2.2943,2.2984,2.3012,2.3055,2.3082,2.3124,2.3149,2.3184,2.3218,2.3235,2.3267,2.3301,2.3338,2.3359,2.3407,2.3417,2.3432,2.3437,2.3431,2.3429,2.3447,2.3446,2.3446,2.3446,2.3446,2.3445,0,2.2926,2.2955,2.3006,2.3054,2.3067,2.3096,2.3137,2.3166,2.319,2.3233,2.3245,2.3283,2.3328,2.3358,2.3414,2.3429,2.3481,2.3485,2.3468,2.3471,2.3493,2.3492,2.3558,2.3569,2.3523,2.3523,2.3524,0,2.2949,2.2978,2.3029,2.3053,2.3077,2.3115,2.3142,2.317,2.3197,2.3246,2.3269,2.3315,2.3353,2.3423,2.3456,2.35,2.3507,2.3527,2.3514,2.3507,2.351,2.3508,2.3512,2.353,2.353,2.353,2.3531,0,2.2988,2.3001,2.3038,2.3082,2.3113,2.3148,2.3184,2.3203,2.3238,2.3268,2.3313,2.3343,2.3401,2.3447,2.3494,2.352,2.3532,2.3534,2.3543,2.3537,2.3527,2.3535,2.3475,2.3533,2.3533,2.3533,2.3533,2.3532,2.3012,2.3039,2.3079,2.3121,2.3151,2.3184,2.3214,2.3242,2.328,2.333,2.3344,2.3392,2.3433,2.3498,2.3524,2.3563,2.3562,2.3573,2.3576,2.3579,2.358,2.3519,2.3572,2.3572,2.3572,2.3572,2.3572,0,2.3053,2.308,2.3118,2.3167,2.3201,2.3208,2.3248,2.3276,2.3318,2.3354,2.3392,2.3445,2.349,2.3527,2.3573,2.3597,2.3604,2.3609,2.3608,2.3615,2.3578,2.3567,2.3603,2.3603,2.3603,2.3603,2.3603,2.3603,2.3078,2.3125,2.3144,2.3207,2.3234,2.328,2.3303,2.3334,2.3364,2.3423,2.346,2.3483,2.3521,2.3571,2.3613,2.3623,2.364,2.3644,2.3655,2.362,2.3617,2.3613,2.3604,2.3647,2.3647,2.3689,2.369,2.369]},{"header":{"parameterUnit":"m.s-1","parameterCategory":1,"la1":30.2991,"la2":30.254,"lo1":-89.0895,"lo2":-89.0444,"dy":0.0017,"dx":0.0017,"nx":28,"ny":28,"refTime":"2024-07-29T21:00:00:Z","depth":0,"parameterNumber":3,"parameterNumberName":"V-component_of_WINDS"},"data":[0,0,0,0,0,0,0,0,0,0,0,0,0,0,0,0,0,0,0,0,0,0,0,0,0,0,0,0,0,0,0,0,0,0,0,0,0,0,0,0,0,0,0,0,0,0,0,0,0,0,0,0,0,0,0,0,0,0,-2.1558,-2.1558,0,-2.1574,-2.1574,-2.1574,-2.1573,-2.1573,-2.1573,-2.1573,-2.1585,-2.1586,-2.1586,0,0,0,0,0,0,0,0,0,0,0,0,0,-2.1527,-2.1528,-2.1558,-2.1558,-2.1559,-2.1574,-2.1574,-2.1574,-2.1573,-2.1573,-2.1573,-2.1572,-2.1585,-2.1586,-2.1586,0,0,0,0,0,0,0,0,0,0,0,0,0,-2.1541,-2.1528,-2.1558,-2.156,-2.156,-2.1574,-2.1574,-2.1574,-2.1573,-2.1573,-2.1573,-2.1572,-2.1585,-2.1586,-2.1586,-2.1598,0,0,-2.1589,-2.1589,0,0,0,0,0,0,0,0,-2.154,-2.1542,-2.156,-2.156,-2.156,-2.1571,-2.1568,-2.1582,-2.1573,-2.1568,-2.1573,-2.1572,-2.1581,-2.1582,-2.1585,-2.1599,-2.1599,-2.1589,-2.159,-2.159,-2.159,0,0,0,0,0,0,0,-2.1539,-2.1542,-2.1564,-2.156,-2.156,-2.156,-2.1562,-2.157,-2.1576,-2.1569,-2.1569,-2.1571,-2.1581,-2.1585,-2.1586,-2.1599,-2.1589,-2.159,-2.159,-2.1591,-2.1626,-2.1626,0,0,0,0,0,0,-2.1538,-2.1541,-2.1564,-2.1565,-2.155,-2.1561,-2.1563,-2.1568,-2.1576,-2.1577,-2.1571,-2.1571,-2.1583,-2.1585,-2.1586,-2.1602,-2.159,-2.1591,-2.1591,-2.1626,-2.1626,-2.1627,0,0,0,0,0,0,-2.1538,-2.154,-2.1563,-2.1553,-2.1556,-2.1562,-2.1568,-2.1569,-2.1572,-2.1578,-2.1578,-2.1574,-2.1583,-2.1585,-2.1596,-2.1602,-2.1591,-2.1592,-2.1625,-2.1626,-2.1626,-2.1632,0,0,0,0,0,0,-2.1537,-2.154,-2.1544,-2.1553,-2.1556,-2.1573,-2.1568,-2.1569,-2.1574,-2.1574,-2.1581,-2.1581,-2.1583,-2.1595,-2.1597,-2.1603,-2.1592,-2.1624,-2.1625,-2.1626,-2.1632,-2.1633,-2.1635,0,0,0,0,0,-2.1536,-2.1544,-2.1545,-2.1547,-2.1562,-2.1573,-2.1575,-2.1578,-2.1575,-2.1579,-2.1583,-2.1581,-2.1602,-2.1596,-2.1598,-2.1605,-2.1624,-2.1625,-2.1626,-2.1631,-2.1633,-2.1634,0,0,0,0,0,0,-2.1534,-2.1545,-2.1546,-2.1557,-2.1565,-2.1573,-2.1578,-2.1579,-2.1586,-2.1586,-2.1588,-2.1589,-2.1601,-2.1604,-2.1598,-2.1618,-2.1612,-2.1614,-2.1615,-2.1617,-2.1619,-2.1617,-2.1593,0,0,0,0,0,-2.1535,-2.1544,-2.1553,-2.1563,-2.1566,-2.1572,-2.1577,-2.1579,-2.1586,-2.1588,-2.1593,-2.1599,-2.1608,-2.1613,-2.162,-2.1633,-2.1635,-2.1639,-2.164,-2.1641,-2.1642,-2.1651,-2.1653,-2.163,-2.163,-2.163,0,0,-2.1537,-2.1545,-2.1549,-2.1563,-2.1568,-2.1578,-2.1574,-2.1583,-2.159,-2.1589,-2.1601,-2.1605,-2.1612,-2.1625,-2.163,-2.1628,-2.165,-2.1643,-2.1643,-2.1644,-2.1653,-2.1655,-2.1657,-2.1631,-2.1631,-2.163,0,0,-2.1546,-2.1552,-2.1562,-2.1569,-2.1578,-2.1583,-2.1585,-2.1594,-2.1598,-2.161,-2.161,-2.1618,-2.1631,-2.1638,-2.1642,-2.1658,-2.1657,-2.166,-2.1667,-2.1676,-2.1678,-2.168,-2.1686,-2.1688,-2.1661,-2.1661,-2.1661,0,-2.1547,-2.1561,-2.1566,-2.1576,-2.1583,-2.1585,-2.1595,-2.1601,-2.1612,-2.1617,-2.1614,-2.1633,-2.1638,-2.1653,-2.1657,-2.1661,-2.1664,-2.1659,-2.1677,-2.1679,-2.1681,-2.1687,-2.1689,-2.1662,-2.1662,-2.1662,-2.1662,0,-2.1562,-2.1573,-2.1579,-2.1593,-2.16,-2.161,-2.1617,-2.1623,-2.1626,-2.1631,-2.1644,-2.1651,-2.1661,-2.1665,-2.1666,-2.1681,-2.1679,-2.1677,-2.1671,-2.1683,-2.1689,-2.1692,-2.1662,-2.1662,-2.1662,-2.1662,0,0,-2.1567,-2.1586,-2.1589,-2.1596,-2.1609,-2.1617,-2.1628,-2.164,-2.1646,-2.1654,-2.1664,-2.1678,-2.1677,-2.1682,-2.1685,-2.1692,-2.1706,-2.1689,-2.169,-2.1693,-2.1725,-2.1726,-2.1729,-2.1706,-2.1707,-2.1707,-2.1724,0,-2.1578,-2.1598,-2.1605,-2.1622,-2.1633,-2.1637,-2.1647,-2.1656,-2.1662,-2.1671,-2.1677,-2.1687,-2.1685,-2.1689,-2.1697,-2.1703,-2.1713,-2.1702,-2.1715,-2.1716,-2.1713,-2.1732,-2.1733,-2.1749,-2.1727,-2.1727,-2.1727,0,-2.1592,-2.1603,-2.1622,-2.1637,-2.1641,-2.165,-2.1663,-2.1672,-2.1683,-2.1687,-2.1696,-2.1698,-2.1711,-2.1706,-2.1723,-2.1716,-2.1722,-2.1727,-2.1727,-2.1728,-2.1722,-2.1733,-2.1754,-2.1756,-2.1731,-2.1731,-2.173,0,-2.1595,-2.1615,-2.1629,-2.1635,-2.1652,-2.1659,-2.1666,-2.1677,-2.1685,-2.1696,-2.1701,-2.1713,-2.172,-2.1729,-2.1735,-2.1731,-2.1753,-2.1748,-2.1757,-2.1757,-2.176,-2.176,-2.1782,-2.1765,-2.1765,-2.1765,-2.1765,0,-2.1605,-2.1617,-2.1631,-2.164,-2.1654,-2.1662,-2.1675,-2.1683,-2.1693,-2.1704,-2.1708,-2.1718,-2.1726,-2.1737,-2.1742,-2.1757,-2.176,-2.1763,-2.1764,-2.1763,-2.1762,-2.1766,-2.1765,-2.1765,-2.1765,-2.1765,-2.1765,0,-2.161,-2.162,-2.1637,-2.1653,-2.1657,-2.1667,-2.168,-2.1689,-2.1697,-2.1711,-2.1714,-2.1725,-2.1739,-2.1747,-2.1763,-2.1767,-2.1784,-2.1784,-2.178,-2.1781,-2.179,-2.1789,-2.1815,-2.1819,-2.1799,-2.1799,-2.1799,0,-2.1616,-2.1625,-2.1644,-2.1652,-2.166,-2.1673,-2.1682,-2.1691,-2.17,-2.1716,-2.1723,-2.1738,-2.175,-2.1772,-2.1781,-2.1794,-2.1795,-2.1804,-2.1797,-2.1796,-2.1796,-2.1796,-2.1797,-2.1804,-2.1805,-2.1805,-2.1805,0,-2.1626,-2.1631,-2.1644,-2.166,-2.1671,-2.1684,-2.1696,-2.1702,-2.1714,-2.1724,-2.1739,-2.1749,-2.1768,-2.1782,-2.1797,-2.1805,-2.1807,-2.1807,-2.181,-2.1808,-2.1806,-2.1808,-2.1784,-2.1806,-2.1806,-2.1806,-2.1806,-2.1806,-2.1631,-2.1641,-2.1656,-2.1672,-2.1683,-2.1695,-2.1705,-2.1715,-2.1729,-2.1746,-2.1751,-2.1767,-2.1781,-2.1801,-2.1809,-2.1822,-2.1821,-2.1825,-2.1826,-2.1826,-2.1827,-2.1805,-2.1825,-2.1825,-2.1825,-2.1825,-2.1825,0,-2.1642,-2.1653,-2.1667,-2.1686,-2.1698,-2.1702,-2.1717,-2.1727,-2.1741,-2.1755,-2.1768,-2.1786,-2.1802,-2.1814,-2.1829,-2.1838,-2.1839,-2.1841,-2.1841,-2.1843,-2.1827,-2.1824,-2.184,-2.184,-2.184,-2.184,-2.184,-2.184,-2.1649,-2.1666,-2.1674,-2.1698,-2.1708,-2.1726,-2.1734,-2.1746,-2.1757,-2.1778,-2.1792,-2.18,-2.1814,-2.1831,-2.1845,-2.1849,-2.1854,-2.1857,-2.186,-2.1845,-2.1843,-2.1842,-2.1838,-2.1858,-2.1858,-2.1874,-2.1874,-2.1874]}]]